Location: Limerick
(52.6650°N, 8.6230°W)
Time: 19:53:25
(UTC+01:00)

Mayak - Visible Passes

Search period start: 25 September 2017 00:00
Search period end: 05 October 2017 00:00
Orbit: 585 x 606 km, 97.6° (Epoch: 25 September)

Date Brightness Start Highest point End Pass type
(mag) Time Alt. Az. Time Alt. Az. Time Alt. Az.
25 Sep 1.8 02:12:15 10° N 02:12:47 13° N 02:12:47 13° N visible
26 Sep 1.8 02:22:02 10° N 02:22:29 13° N 02:22:29 13° N visible
27 Sep 1.9 02:31:51 10° N 02:32:10 12° N 02:32:10 12° N visible
28 Sep 1.9 02:41:40 10° N 02:41:51 11° N 02:41:51 11° N visible
